When you browse on this site, cookies collect data to enhance your experience and personalize the content and advertising you see.
Visit our Privacy Policy to learn more. By continuing to use the site, you agree to this use of cookies and data.
  • In Austria
  • List of Countries
  • For 7 days
  • Water Temperature
  • Satellite Maps
  • Weather Map
  • News
  • Weather Widgets
  • user-avatar
    Login

    Hourly Weather Lagowiec

    Today, 10 December, Monday

    Time Temperature Precipitation Wind Pressure Humidity
    00:00 +4°C° 0.4 mm 8 mps 739 mmHg 76%
    01:00 +4°C° 0 mm 7 mps 740 mmHg 75%
    02:00 +3°C° 0.2 mm 7 mps 740 mmHg 75%
    03:00 +3°C° 0.2 mm 7 mps 741 mmHg 74%
    04:00 +3°C° 0.2 mm 7 mps 742 mmHg 74%
    05:00 +3°C° 0 mm 7 mps 742 mmHg 74%
    06:00 +2°C° 0 mm 7 mps 743 mmHg 75%
    07:00 +2°C° 0 mm 6 mps 744 mmHg 75%
    08:00 +2°C° 0 mm 7 mps 744 mmHg 74%
    09:00 +2°C° 0 mm 7 mps 745 mmHg 73%
    10:00 +2°C° 0 mm 7 mps 745 mmHg 71%
    11:00 +3°C° 0.1 mm 7 mps 745 mmHg 69%
    12:00 +3°C° 0.1 mm 7 mps 745 mmHg 66%
    13:00 +2°C° 0.1 mm 8 mps 745 mmHg 63%
    14:00 +3°C° 0.1 mm 7 mps 746 mmHg 65%
    15:00 +2°C° 0.1 mm 6 mps 746 mmHg 66%
    16:00 +2°C° 0.1 mm 5 mps 746 mmHg 68%
    17:00 +2°C° 0 mm 5 mps 746 mmHg 69%
    18:00 +1°C° 0 mm 5 mps 746 mmHg 71%
    19:00 +1°C° 0 mm 5 mps 746 mmHg 73%
    20:00 +1°C° 0 mm 5 mps 746 mmHg 75%
    21:00 +1°C° 0 mm 5 mps 746 mmHg 76%
    22:00 +1°C° 0 mm 5 mps 746 mmHg 78%
    23:00 +1°C° 0 mm 5 mps 746 mmHg 78%

    Tomorrow, 11 December, Tuesday

    Time Temperature Precipitation Wind Pressure Humidity
    00:00 +1°C° 0 mm 5 mps 746 mmHg 78%
    01:00 +1°C° 0 mm 5 mps 746 mmHg 78%
    02:00 +1°C° 0.2 mm 5 mps 746 mmHg 78%
    03:00 +1°C° 0.2 mm 5 mps 746 mmHg 78%
    04:00 +1°C° 0.2 mm 5 mps 745 mmHg 78%
    05:00 +1°C° 0.4 mm 5 mps 745 mmHg 79%
    06:00 +1°C° 0.4 mm 5 mps 745 mmHg 80%
    07:00 +1°C° 0.4 mm 5 mps 745 mmHg 81%
    08:00 +1°C° 0.3 mm 5 mps 746 mmHg 82%
    09:00 +1°C° 0.3 mm 5 mps 746 mmHg 82%
    10:00 +1°C° 0.3 mm 5 mps 746 mmHg 83%
    11:00 +2°C° 0.2 mm 5 mps 746 mmHg 81%
    12:00 +2°C° 0.2 mm 5 mps 747 mmHg 80%
    13:00 +2°C° 0.2 mm 5 mps 747 mmHg 78%
    14:00 +2°C° 0.3 mm 5 mps 748 mmHg 80%
    15:00 +1°C° 0.3 mm 5 mps 748 mmHg 81%
    16:00 +1°C° 0.3 mm 4 mps 749 mmHg 83%
    17:00 +1°C° 0.3 mm 4 mps 749 mmHg 85%
    18:00 +1°C° 0.3 mm 4 mps 750 mmHg 86%
    19:00 0°C° 0.3 mm 4 mps 750 mmHg 87%
    20:00 0°C° 0 mm 4 mps 751 mmHg 89%
    21:00 +1°C° 0 mm 3 mps 751 mmHg 90%
    22:00 +1°C° 0 mm 3 mps 752 mmHg 91%
    23:00 0°C° 0 mm 3 mps 752 mmHg 92%

    Day after tomorrow, 12 December, Wednesday

    Time Temperature Precipitation Wind Pressure Humidity
    00:00 0°C° 0 mm 3 mps 752 mmHg 93%
    01:00 -1°C° 0 mm 3 mps 753 mmHg 93%
    02:00 -1°C° 0 mm 2 mps 753 mmHg 93%
    03:00 -1°C° 0 mm 2 mps 753 mmHg 94%
    04:00 -2°C° 0 mm 2 mps 753 mmHg 94%
    05:00 -2°C° 0 mm 2 mps 754 mmHg 94%
    06:00 -2°C° 0 mm 2 mps 754 mmHg 94%
    07:00 -2°C° 0 mm 2 mps 754 mmHg 94%
    08:00 +1°C° 0 mm 1 mps 755 mmHg 92%
    09:00 +1°C° 0 mm 1 mps 755 mmHg 90%
    10:00 +2°C° 0 mm 1 mps 755 mmHg 88%
    11:00 +2°C° 0 mm 1 mps 755 mmHg 85%
    12:00 +3°C° 0 mm 1 mps 755 mmHg 83%
    13:00 +3°C° 0 mm 1 mps 755 mmHg 80%
    14:00 +2°C° 0 mm 1 mps 755 mmHg 84%
    15:00 +2°C° 0 mm 1 mps 755 mmHg 87%
    16:00 +1°C° 0 mm 1 mps 755 mmHg 90%
    17:00 +1°C° 0.1 mm 1 mps 756 mmHg 91%
    18:00 +1°C° 0.1 mm 1 mps 756 mmHg 91%
    19:00 +1°C° 0.1 mm 1 mps 756 mmHg 92%
    20:00 +1°C° 0.1 mm 1 mps 756 mmHg 92%
    21:00 0°C° 0.1 mm 1 mps 756 mmHg 93%
    22:00 0°C° 0.1 mm 1 mps 756 mmHg 93%
    23:00 0°C° 0 mm 1 mps 756 mmHg 93%

    13 December, Thursday

    Time Temperature Precipitation Wind Pressure Humidity
    00:00 0°C° 0 mm 1 mps 756 mmHg 93%
    01:00 -1°C° 0 mm 1 mps 756 mmHg 93%
    02:00 -1°C° 0 mm 1 mps 756 mmHg 93%
    03:00 -1°C° 0 mm 1 mps 756 mmHg 92%
    04:00 -1°C° 0 mm 1 mps 756 mmHg 92%
    05:00 -1°C° 0 mm 1 mps 756 mmHg 92%
    06:00 -1°C° 0 mm 1 mps 756 mmHg 92%
    07:00 -1°C° 0 mm 1 mps 756 mmHg 92%
    08:00 -1°C° 0 mm 1 mps 756 mmHg 90%
    09:00 -2°C° 0 mm 2 mps 756 mmHg 87%
    10:00 -2°C° 0 mm 2 mps 756 mmHg 85%
    11:00 -1°C° 0 mm 2 mps 756 mmHg 83%
    12:00 -1°C° 0 mm 2 mps 756 mmHg 82%
    13:00 +1°C° 0 mm 2 mps 756 mmHg 80%
    14:00 -1°C° 0 mm 2 mps 756 mmHg 83%
    15:00 -1°C° 0 mm 2 mps 756 mmHg 86%
    16:00 -2°C° 0 mm 2 mps 755 mmHg 89%
    17:00 -2°C° 0 mm 2 mps 756 mmHg 89%
    18:00 0°C° 0 mm 1 mps 756 mmHg 90%
    19:00 0°C° 0 mm 1 mps 756 mmHg 90%
    20:00 0°C° 0 mm 1 mps 756 mmHg 90%
    21:00 0°C° 0 mm 1 mps 756 mmHg 90%
    22:00 0°C° 0 mm 1 mps 757 mmHg 90%
    23:00 0°C° 0 mm 1 mps 757 mmHg 90%

    14 December, Friday

    Time Temperature Precipitation Wind Pressure Humidity
    00:00 0°C° 0 mm 1 mps 757 mmHg 90%
    01:00 0°C° 0 mm 1 mps 757 mmHg 89%
    02:00 0°C° 0 mm 1 mps 757 mmHg 89%
    03:00 0°C° 0 mm 1 mps 757 mmHg 89%
    04:00 0°C° 0 mm 1 mps 757 mmHg 89%
    05:00 0°C° 0 mm 1 mps 757 mmHg 89%
    06:00 0°C° 0 mm 1 mps 757 mmHg 89%
    07:00 -2°C° 0 mm 2 mps 758 mmHg 88%
    08:00 -2°C° 0 mm 2 mps 758 mmHg 86%
    09:00 -1°C° 0 mm 2 mps 759 mmHg 84%
    10:00 -1°C° 0 mm 2 mps 759 mmHg 82%
    11:00 -1°C° 0 mm 2 mps 759 mmHg 80%
    12:00 +1°C° 0 mm 2 mps 759 mmHg 78%
    13:00 0°C° 0 mm 3 mps 759 mmHg 76%
    14:00 -1°C° 0 mm 2 mps 760 mmHg 80%
    15:00 -2°C° 0 mm 2 mps 760 mmHg 85%
    16:00 -2°C° 0 mm 2 mps 760 mmHg 89%
    17:00 -2°C° 0 mm 2 mps 760 mmHg 89%
    18:00 -2°C° 0 mm 2 mps 761 mmHg 89%
    19:00 -2°C° 0 mm 2 mps 761 mmHg 90%
    20:00 -2°C° 0 mm 2 mps 761 mmHg 90%
    21:00 -2°C° 0 mm 2 mps 762 mmHg 89%
    22:00 -2°C° 0 mm 2 mps 762 mmHg 89%
    23:00 -2°C° 0 mm 2 mps 762 mmHg 90%

    15 December, Saturday

    Time Temperature Precipitation Wind Pressure Humidity
    00:00 -2°C° 0 mm 2 mps 762 mmHg 90%
    01:00 -2°C° 0 mm 2 mps 763 mmHg 90%
    02:00 -2°C° 0 mm 2 mps 763 mmHg 90%
    03:00 0°C° 0 mm 1 mps 763 mmHg 91%
    04:00 0°C° 0 mm 1 mps 763 mmHg 91%
    05:00 0°C° 0 mm 1 mps 763 mmHg 91%
    06:00 0°C° 0 mm 1 mps 764 mmHg 91%
    07:00 -2°C° 0 mm 2 mps 764 mmHg 90%
    08:00 -2°C° 0 mm 2 mps 764 mmHg 89%
    09:00 -2°C° 0 mm 2 mps 764 mmHg 87%
    10:00 -2°C° 0 mm 2 mps 765 mmHg 86%
    11:00 -1°C° 0 mm 2 mps 764 mmHg 83%
    12:00 -1°C° 0 mm 2 mps 764 mmHg 81%
    13:00 +1°C° 0 mm 2 mps 764 mmHg 78%
    14:00 -1°C° 0 mm 2 mps 764 mmHg 82%
    15:00 -2°C° 0 mm 2 mps 765 mmHg 86%
    16:00 -2°C° 0 mm 2 mps 765 mmHg 89%
    17:00 -3°C° 0 mm 2 mps 765 mmHg 90%
    18:00 -3°C° 0 mm 2 mps 765 mmHg 90%
    19:00 -4°C° 0 mm 3 mps 765 mmHg 90%
    20:00 -4°C° 0 mm 3 mps 765 mmHg 90%
    21:00 -4°C° 0 mm 3 mps 765 mmHg 90%
    22:00 -4°C° 0 mm 3 mps 765 mmHg 90%
    23:00 -4°C° 0 mm 3 mps 765 mmHg 90%
    Show more